Location: Unspecified
(0.0000°N, 0.0000°E)
Time: 13:43:52
(UTC+00:00)

ISS - Visible Passes

Search period start: 18 October 2019 00:00
Search period end: 28 October 2019 00:00
Orbit: 411 x 421 km, 51.6° (Epoch: 18 October)

Date Brightness Start Highest point End Pass type
(mag) Time Alt. Az. Time Alt. Az. Time Alt. Az.
18 Oct -0.4 04:40:29 10° SSE 04:41:58 12° SE 04:43:27 10° E visible
20 Oct -3.2 04:38:08 10° SSW 04:41:28 59° SE 04:44:47 10° NE visible
21 Oct -1.4 03:53:18 23° ESE 03:53:18 23° ESE 03:55:43 10° ENE visible
22 Oct -2.2 04:41:52 21° NNW 04:41:52 21° NNW 04:43:40 10° N visible
